Regional Weather Roundup
Issued by NWS

Home | Current Version | Previous Version | Text Only | Print | Product List | Glossary Off
Versions: 1 2 3 4 5 6 7 8 9 10 11 12 13 14 15 16 17 18 19 20 21 22 23 24 25 26 27 28 29 30 31 32 33 34 35 36 37 38 39 40 41 42 43 44 45 46 47 48 49 50

000
ASUS45 KCYS 251310
RWRWY

WYOMING REGIONAL WEATHER ROUNDUP
NATIONAL WEATHER SERVICE CHEYENNE WY
700 AM MDT FRI JUL 25 2014

NOTE:  "FAIR" INDICATES FEW OR NO CLOUDS BELOW 12,000 FEET
WITH NO SIGNIFICANT WEATHER AND/OR OBSTRUCTIONS TO VISIBILITY.

WYZ001-251400-
YELLOWSTONE NATIONAL PARK

CITY           SKY/WX    TMP DP  RH WIND       PRES   REMARKS
LK YELLOWSTONE   N/A     30  23  75 NW5       30.28S WCI  25
W YELLOWSTONE  NOT AVBL

$$
WYZ002>013-054>058-071-098>099-251400-
NORTHERN WYOMING

CITY           SKY/WX    TMP DP  RH WIND       PRES   REMARKS
JACKSON        CLEAR     36  28  75 CALM      30.21R
CODY           NOT AVBL
GREYBULL       SUNNY     61  37  41 N3        30.00R
WORLAND        SUNNY     59  40  49 N3        30.02R
SHERIDAN       SUNNY     55  49  80 NE3       30.02S
BUFFALO        SUNNY     59  47  64 SE8       30.08S
GILLETTE       SUNNY     57  47  69 CALM      30.06R
HULETT         FAIR      55  45  67 MISG      30.05
NEWCASTLE      FAIR      59  36  41 CALM      30.03

$$
WYZ014>020-022>026-101>103-251400-
CENTRAL WYOMING

CITY           SKY/WX    TMP DP  RH WIND       PRES   REMARKS
BIG PINEY      PTCLDY    44  26  49 N5        30.23S
PINEDALE       MOSUNNY   41  34  75 W7        30.24R
DUBOIS         FAIR      50  18  27 NW20      30.17S
LANDER         CLOUDY    59  25  27 W5        30.07S
RIVERTON       PTCLDY    62  26  25 N5        30.08S
CASPER         MOSUNNY   56  50  80 N6        30.10S
DOUGLAS        SUNNY     59  50  72 NW5       30.11F

$$
WYZ021-027>030-104>119-251400-
SOUTHERN WYOMING

CITY           SKY/WX    TMP DP  RH WIND       PRES   REMARKS
EVANSTON       CLEAR     54  37  52 E3        30.23R
KEMMERER       SUNNY     50  32  50 N9        30.24S
FORT BRIDGER   FAIR      58  32  38 W5        30.25R
ROCK SPRINGS   CLEAR     59  28  30 SE6       30.19R
DIXON          FAIR      60  45  57 CALM      30.23S
RAWLINS        MOSUNNY   64  44  48 SW6       30.19S
SARATOGA       FAIR      63  43  48 SE9       30.23R
LARAMIE        PTSUNNY   61  45  55 VRB5      30.24R
CHEYENNE       MOSUNNY   68  48  48 SE9       30.13R
TORRINGTON     MOSUNNY   64  56  75 NW10      30.03R
PINE BLUFFS    FAIR      59  52  77 N3        30.09R

$$


USA.gov is the U.S. government's official web portal to all federal, state and local government web resources and services.